{"data":{"norad_id":48395,"intl_designator":"2021-038AU","name":"STARLINK-2574","alt_names":[],"object_type":"PAYLOAD","status":"ACTIVE","operator":null,"country":"US","launch_date":"2021-05-04","launch_site_code":"AFETR","launch_vehicle":null,"mission":null,"orbit_class":"UNKNOWN","rcs_meters":null,"size_class":null,"mass_kg":null,"dimensions":null,"purposes":["comms"],"wikipedia_slug":null,"has_3d_model":false,"image_url":null,"decayed_at":null,"tle_current":{"epoch":"2026-05-24T20:08:23.404992Z","epoch_age_seconds":88720,"freshness":"FRESH","line1":"1 48395U 21038AU  26144.83915978  .00001247  00000+0  51928-4 0  9992","line2":"2 48395  53.1603 340.7373 0001061  82.6129 277.4993 15.31714520280293","mean_motion":15.3171452,"eccentricity":0.0001061,"inclination_deg":53.1603,"raan_deg":340.7373,"arg_perigee_deg":82.6129,"mean_anomaly_deg":277.4993,"bstar":5.1928e-5,"rev_number":28029,"period_min":94.012296756187,"perigee_km":469.97005094627,"apogee_km":471.42337346,"semimajor_km":6848.8337122031,"source":"CELESTRAK","updated_at":"2026-05-25T13:38:16.710444Z"}}}